TimePST,TemperatureF,Dew PointF,Humidity,Sea Level PressureIn,VisibilityMPH,Wind Direction,Wind SpeedMPH,Gust SpeedMPH,PrecipitationIn,Events,Conditions,WindDirDegrees,DateUTC
12:53 AM,68.0,34.0,28,29.83,10.0,Calm,Calm,-,N/A,,Clear,0,2012-11-08 08:53:00
1:53 AM,69.1,34.0,27,29.81,9.0,WNW,8.1,-,N/A,,Clear,290,2012-11-08 09:53:00
2:53 AM,66.9,34.0,30,29.81,10.0,WNW,9.2,-,N/A,,Clear,300,2012-11-08 10:53:00
3:53 AM,72.0,37.0,28,29.82,9.0,West,17.3,-,N/A,,Clear,270,2012-11-08 11:53:00
4:53 AM,71.1,37.9,30,29.83,10.0,West,18.4,-,N/A,,Clear,280,2012-11-08 12:53:00
5:53 AM,71.1,36.0,28,29.85,10.0,West,12.7,26.5,N/A,,Clear,270,2012-11-08 13:53:00
6:43 AM,69.8,39.2,33,29.87,10.0,West,5.8,-,N/A,,Mostly Cloudy,260,2012-11-08 14:43:00
6:53 AM,70.0,39.0,32,29.87,8.0,WSW,6.9,-,N/A,,Mostly Cloudy,240,2012-11-08 14:53:00
7:01 AM,71.6,39.2,31,29.88,5.0,WSW,5.8,-,N/A,,Haze,240,2012-11-08 15:01:00
7:22 AM,71.6,42.8,35,29.89,1.8,WSW,11.5,-,N/A,,Haze,250,2012-11-08 15:22:00
7:26 AM,69.8,44.6,40,29.89,1.0,West,11.5,-,N/A,,Haze,260,2012-11-08 15:26:00
7:36 AM,69.8,44.6,40,29.88,0.8,West,10.4,-,N/A,,Haze,270,2012-11-08 15:36:00
7:53 AM,73.0,45.0,37,29.88,1.2,WNW,12.7,-,N/A,,Haze,290,2012-11-08 15:53:00
8:13 AM,73.4,46.4,38,29.88,1.5,West,8.1,-,N/A,,Haze,270,2012-11-08 16:13:00
8:30 AM,73.4,48.2,41,29.88,2.5,WNW,6.9,-,N/A,,Haze,290,2012-11-08 16:30:00
8:39 AM,73.4,48.2,41,29.88,3.0,West,6.9,-,N/A,,Haze,280,2012-11-08 16:39:00
8:48 AM,73.4,50.0,44,29.88,3.0,West,5.8,-,N/A,,Haze,260,2012-11-08 16:48:00
8:53 AM,73.9,50.0,43,29.88,5.0,WSW,5.8,-,N/A,,Haze,250,2012-11-08 16:53:00
9:53 AM,73.9,55.9,53,29.86,10.0,Calm,Calm,-,0.00,Rain,Light Rain,0,2012-11-08 17:53:00
10:53 AM,73.9,55.0,52,29.85,10.0,Calm,Calm,-,0.00,Rain,Light Rain,0,2012-11-08 18:53:00
11:53 AM,75.9,57.0,52,29.81,10.0,SSW,6.9,-,0.00,,Overcast,200,2012-11-08 19:53:00
12:53 PM,80.1,55.0,42,29.78,10.0,South,6.9,-,0.00,,Partly Cloudy,190,2012-11-08 20:53:00
1:53 PM,80.1,46.9,31,29.78,10.0,South,16.1,-,N/A,,Scattered Clouds,170,2012-11-08 21:53:00
2:53 PM,80.1,50.0,35,29.77,10.0,South,11.5,-,0.00,,Partly Cloudy,180,2012-11-08 22:53:00
3:53 PM,79.0,48.9,35,29.75,10.0,South,11.5,-,N/A,,Clear,190,2012-11-08 23:53:00
4:53 PM,77.0,46.9,34,29.75,10.0,SSW,8.1,-,N/A,,Scattered Clouds,200,2012-11-09 00:53:00
5:53 PM,73.0,54.0,51,29.76,10.0,West,13.8,20.7,N/A,,Clear,270,2012-11-09 01:53:00
6:53 PM,71.1,52.0,51,29.77,10.0,West,20.7,28.8,N/A,,Clear,270,2012-11-09 02:53:00
7:53 PM,70.0,50.0,49,29.79,10.0,NNW,12.7,19.6,N/A,,Mostly Cloudy,340,2012-11-09 03:53:00
8:29 PM,68.0,48.2,49,29.77,10.0,West,17.3,28.8,N/A,,Clear,270,2012-11-09 04:29:00
8:53 PM,68.0,48.9,50,29.78,10.0,West,24.2,39.1,N/A,,Clear,280,2012-11-09 04:53:00
9:53 PM,66.9,50.0,54,29.79,10.0,West,23.0,29.9,N/A,,Clear,270,2012-11-09 05:53:00
10:53 PM,66.0,51.1,59,29.78,10.0,West,20.7,27.6,N/A,,Clear,260,2012-11-09 06:53:00
11:53 PM,64.9,51.1,61,29.80,10.0,West,10.4,-,N/A,,Clear,270,2012-11-09 07:53:00